When you browse on this site, cookies collect data to enhance your experience and personalize the content and advertising you see.
Visit our Privacy Policy to learn more. By continuing to use the site, you agree to this use of cookies and data.
  • In Romania
  • List of Countries
  • For 7 days
  • Water Temperature
  • Satellite Maps
  • Weather Map
  • Weather Widgets
  • user-avatar
    Login

    Hourly Weather Worcester

    Today, 27 June, Thursday

    Time Temperature Precipitation Wind Pressure Humidity
    00:00 +11°C° 0 mm 3 mps 768 mmHg 91%
    01:00 +11°C° 0 mm 3 mps 768 mmHg 92%
    02:00 +10°C° 0 mm 3 mps 768 mmHg 92%
    03:00 +10°C° 0 mm 4 mps 768 mmHg 93%
    04:00 +10°C° 0 mm 4 mps 768 mmHg 91%
    05:00 +11°C° 0 mm 4 mps 768 mmHg 89%
    06:00 +11°C° 0 mm 4 mps 768 mmHg 87%
    07:00 +13°C° 0 mm 4 mps 768 mmHg 83%
    08:00 +14°C° 0 mm 5 mps 768 mmHg 79%
    09:00 +16°C° 0 mm 5 mps 768 mmHg 75%
    10:00 +17°C° 0 mm 5 mps 768 mmHg 74%
    11:00 +19°C° 0 mm 6 mps 768 mmHg 73%
    12:00 +21°C° 0 mm 6 mps 767 mmHg 72%
    13:00 +21°C° 0 mm 6 mps 767 mmHg 73%
    14:00 +22°C° 0 mm 6 mps 767 mmHg 74%
    15:00 +22°C° 0 mm 6 mps 767 mmHg 74%
    16:00 +21°C° 0 mm 6 mps 766 mmHg 76%
    17:00 +21°C° 0 mm 6 mps 766 mmHg 78%
    18:00 +20°C° 0 mm 6 mps 766 mmHg 81%
    19:00 +17°C° 0 mm 6 mps 766 mmHg 82%
    20:00 +16°C° 0 mm 6 mps 766 mmHg 83%
    21:00 +14°C° 0 mm 5 mps 766 mmHg 85%
    22:00 +13°C° 0 mm 5 mps 766 mmHg 87%
    23:00 +12°C° 0 mm 4 mps 766 mmHg 89%

    Tomorrow, 28 June, Friday

    Time Temperature Precipitation Wind Pressure Humidity
    00:00 +11°C° 0 mm 4 mps 766 mmHg 91%
    01:00 +11°C° 0 mm 4 mps 766 mmHg 93%
    02:00 +10°C° 0 mm 4 mps 766 mmHg 94%
    03:00 +10°C° 0 mm 3 mps 765 mmHg 95%
    04:00 +11°C° 0 mm 4 mps 765 mmHg 93%
    05:00 +11°C° 0 mm 4 mps 765 mmHg 91%
    06:00 +12°C° 0 mm 4 mps 764 mmHg 89%
    07:00 +14°C° 0 mm 5 mps 764 mmHg 85%
    08:00 +15°C° 0 mm 5 mps 764 mmHg 81%
    09:00 +17°C° 0 mm 5 mps 764 mmHg 77%
    10:00 +19°C° 0 mm 5 mps 764 mmHg 76%
    11:00 +21°C° 0 mm 6 mps 763 mmHg 75%
    12:00 +22°C° 0 mm 6 mps 763 mmHg 74%
    13:00 +23°C° 0 mm 6 mps 763 mmHg 74%
    14:00 +23°C° 0 mm 6 mps 762 mmHg 75%
    15:00 +24°C° 0 mm 6 mps 762 mmHg 75%
    16:00 +23°C° 0 mm 5 mps 762 mmHg 77%
    17:00 +23°C° 0 mm 5 mps 761 mmHg 79%
    18:00 +22°C° 0 mm 5 mps 761 mmHg 81%
    19:00 +20°C° 0 mm 5 mps 761 mmHg 83%
    20:00 +18°C° 0 mm 4 mps 761 mmHg 85%
    21:00 +16°C° 0 mm 3 mps 761 mmHg 87%
    22:00 +14°C° 0 mm 3 mps 761 mmHg 89%
    23:00 +14°C° 0 mm 2 mps 760 mmHg 90%

    Day after tomorrow, 29 June, Saturday

    Time Temperature Precipitation Wind Pressure Humidity
    00:00 +13°C° 0 mm 2 mps 760 mmHg 92%
    01:00 +13°C° 0 mm 2 mps 760 mmHg 92%
    02:00 +13°C° 0 mm 2 mps 759 mmHg 93%
    03:00 +12°C° 0 mm 2 mps 759 mmHg 94%
    04:00 +13°C° 0 mm 1 mps 759 mmHg 93%
    05:00 +14°C° 0 mm 1 mps 758 mmHg 91%
    06:00 +15°C° 0 mm 1 mps 758 mmHg 90%
    07:00 +17°C° 0 mm 2 mps 758 mmHg 87%
    08:00 +19°C° 0 mm 2 mps 757 mmHg 83%
    09:00 +21°C° 0 mm 3 mps 757 mmHg 80%
    10:00 +24°C° 0 mm 3 mps 757 mmHg 78%
    11:00 +25°C° 0 mm 3 mps 756 mmHg 77%
    12:00 +27°C° 0 mm 4 mps 756 mmHg 75%
    13:00 +27°C° 0 mm 4 mps 755 mmHg 75%
    14:00 +28°C° 0 mm 4 mps 755 mmHg 75%
    15:00 +28°C° 0 mm 5 mps 755 mmHg 75%
    16:00 +27°C° 0.1 mm 4 mps 755 mmHg 80%
    17:00 +25°C° 0.1 mm 4 mps 754 mmHg 85%
    18:00 +23°C° 0.1 mm 4 mps 754 mmHg 89%
    19:00 +21°C° 0 mm 4 mps 754 mmHg 90%
    20:00 +19°C° 0 mm 3 mps 755 mmHg 91%
    21:00 +17°C° 0 mm 3 mps 755 mmHg 92%
    22:00 +16°C° 0 mm 3 mps 755 mmHg 92%
    23:00 +13°C° 0 mm 3 mps 755 mmHg 93%

    30 June, Sunday

    Time Temperature Precipitation Wind Pressure Humidity
    00:00 +12°C° 0 mm 3 mps 756 mmHg 94%
    01:00 +12°C° 0 mm 3 mps 756 mmHg 94%
    02:00 +12°C° 0 mm 3 mps 756 mmHg 95%
    03:00 +12°C° 0 mm 3 mps 756 mmHg 96%
    04:00 +12°C° 0 mm 3 mps 756 mmHg 94%
    05:00 +13°C° 0 mm 4 mps 756 mmHg 92%
    06:00 +14°C° 0 mm 4 mps 756 mmHg 91%
    07:00 +15°C° 0 mm 5 mps 756 mmHg 88%
    08:00 +16°C° 0 mm 5 mps 757 mmHg 85%
    09:00 +16°C° 0 mm 5 mps 757 mmHg 82%
    10:00 +17°C° 0 mm 6 mps 757 mmHg 79%
    11:00 +19°C° 0 mm 6 mps 757 mmHg 77%
    12:00 +20°C° 0 mm 6 mps 757 mmHg 74%
    13:00 +20°C° 0 mm 6 mps 757 mmHg 74%
    14:00 +20°C° 0 mm 6 mps 757 mmHg 74%
    15:00 +20°C° 0 mm 7 mps 757 mmHg 74%
    16:00 +19°C° 0.1 mm 6 mps 757 mmHg 76%
    17:00 +17°C° 0.1 mm 6 mps 757 mmHg 78%
    18:00 +17°C° 0.1 mm 6 mps 757 mmHg 80%
    19:00 +16°C° 0 mm 5 mps 757 mmHg 83%
    20:00 +15°C° 0 mm 5 mps 757 mmHg 87%
    21:00 +13°C° 0 mm 4 mps 758 mmHg 90%
    22:00 +13°C° 0 mm 4 mps 758 mmHg 92%
    23:00 +12°C° 0 mm 4 mps 758 mmHg 93%

    1 July, Monday

    Time Temperature Precipitation Wind Pressure Humidity
    00:00 +11°C° 0 mm 4 mps 758 mmHg 95%
    01:00 +11°C° 0 mm 3 mps 758 mmHg 95%
    02:00 +10°C° 0 mm 3 mps 758 mmHg 94%
    03:00 +10°C° 0 mm 3 mps 758 mmHg 94%
    04:00 +10°C° 0 mm 3 mps 759 mmHg 92%
    05:00 +11°C° 0 mm 4 mps 759 mmHg 90%
    06:00 +12°C° 0 mm 4 mps 759 mmHg 88%
    07:00 +13°C° 0 mm 4 mps 760 mmHg 84%
    08:00 +14°C° 0 mm 5 mps 760 mmHg 79%
    09:00 +15°C° 0 mm 5 mps 760 mmHg 75%
    10:00 +16°C° 0 mm 6 mps 760 mmHg 73%
    11:00 +17°C° 0 mm 6 mps 760 mmHg 72%
    12:00 +19°C° 0 mm 6 mps 760 mmHg 70%
    13:00 +19°C° 0.1 mm 6 mps 761 mmHg 70%
    14:00 +19°C° 0.1 mm 6 mps 761 mmHg 71%
    15:00 +19°C° 0.1 mm 6 mps 761 mmHg 71%
    16:00 +19°C° 0.1 mm 5 mps 761 mmHg 73%
    17:00 +17°C° 0.1 mm 5 mps 761 mmHg 75%
    18:00 +18°C° 0.1 mm 4 mps 761 mmHg 77%
    19:00 +15°C° 0 mm 4 mps 762 mmHg 80%
    20:00 +14°C° 0 mm 3 mps 762 mmHg 83%
    21:00 +12°C° 0 mm 3 mps 763 mmHg 86%
    22:00 +12°C° 0 mm 2 mps 763 mmHg 88%
    23:00 +10°C° 0 mm 2 mps 763 mmHg 90%

    2 July, Tuesday

    Time Temperature Precipitation Wind Pressure Humidity
    00:00 +9°C° 0 mm 2 mps 763 mmHg 91%
    01:00 +9°C° 0 mm 2 mps 763 mmHg 92%
    02:00 +8°C° 0 mm 2 mps 764 mmHg 92%
    03:00 +8°C° 0 mm 2 mps 764 mmHg 92%
    04:00 +9°C° 0 mm 2 mps 764 mmHg 90%
    05:00 +9°C° 0 mm 2 mps 764 mmHg 88%
    06:00 +10°C° 0 mm 3 mps 764 mmHg 86%
    07:00 +12°C° 0 mm 3 mps 764 mmHg 82%
    08:00 +13°C° 0 mm 3 mps 764 mmHg 78%
    09:00 +15°C° 0 mm 4 mps 764 mmHg 74%
    10:00 +17°C° 0 mm 4 mps 764 mmHg 72%
    11:00 +18°C° 0 mm 4 mps 765 mmHg 70%
    12:00 +18°C° 0 mm 4 mps 765 mmHg 67%
    13:00 +18°C° 0 mm 4 mps 764 mmHg 68%
    14:00 +18°C° 0 mm 4 mps 764 mmHg 68%
    15:00 +18°C° 0 mm 3 mps 764 mmHg 68%
    16:00 +18°C° 0 mm 4 mps 764 mmHg 70%
    17:00 +18°C° 0 mm 4 mps 764 mmHg 72%
    18:00 +17°C° 0 mm 4 mps 764 mmHg 73%
    19:00 +14°C° 0 mm 3 mps 764 mmHg 77%
    20:00 +13°C° 0 mm 3 mps 765 mmHg 80%
    21:00 +11°C° 0 mm 3 mps 765 mmHg 83%
    22:00 +10°C° 0 mm 3 mps 765 mmHg 85%
    23:00 +9°C° 0 mm 2 mps 765 mmHg 88%
    Show more